No particular awareness of the weather is required.    There are no Weather-warnings


Meteo18 Weather Cam more information Meteo18 Weather Cam


Thunder radar more information blitzortung!


Rain radar more information rain snow radar


Visit our other weather sites:

Template documentation
and downloads

And another site



Weather Underground History page Text

Daily Summary for January 17, 2017 Units:  English    Metric   Both
« Previous Day
Next Day »
Daily Weekly Monthly Yearly Custom
  High: Low: Average:
Temperature: 30.2 °F 24.4 °F 26.8 °F
Dew Point: 27.5 °F 19.8 °F 22.6 °F
Humidity: 90 % 75 % 84 %
Wind Speed: 16 mph 0 mph 7.3 mph
Wind Gust: 26 mph - -
Wind:- - ESE
Pressure: 30.5 in 30.4 in -
Precipitation: 0 in    
Historical Graphs
 
 
Tabular Data for January 17, 2017
Time Temperature Dew Point Pressure Wind Wind Speed Wind Gust Humidity Rainfall Rate (Hourly)
00:02 30 °F 27.5 °F 30.4 in NE 4 mph 11 mph 90 % 0 in
00:07 29.8 °F 27.3 °F 30.4 in NNE 5 mph 9 mph 90 % 0 in
00:12 29.8 °F 27.3 °F 30.4 in NNE 8 mph 12 mph 90 % 0 in
00:17 30 °F 27.1 °F 30.4 in North 8 mph 12 mph 89 % 0 in
00:22 30.2 °F 27.1 °F 30.4 in NNE 12 mph 13 mph 88 % 0 in
00:27 30 °F 27.1 °F 30.4 in NE 13 mph 16 mph 89 % 0 in
00:32 30 °F 27.1 °F 30.4 in NE 8 mph 16 mph 89 % 0 in
00:37 30 °F 27 °F 30.4 in North 6 mph 15 mph 88 % 0 in
00:42 30 °F 27 °F 30.4 in NE 6 mph 15 mph 88 % 0 in
00:52 29.8 °F 26.8 °F 30.4 in NE 8 mph 15 mph 88 % 0 in
00:57 29.8 °F 26.8 °F 30.4 in NE 6 mph 13 mph 88 % 0 in
01:02 29.8 °F 26.8 °F 30.4 in ENE 9 mph 15 mph 88 % 0 in
01:07 29.7 °F 26.2 °F 30.4 in NE 10 mph 15 mph 87 % 0 in
01:12 29.7 °F 26.2 °F 30.4 in NNE 12 mph 15 mph 87 % 0 in
01:17 29.7 °F 26.2 °F 30.4 in NE 8 mph 13 mph 87 % 0 in
01:27 29.3 °F 25.9 °F 30.4 in NNW 3 mph 14 mph 87 % 0 in
01:32 29.1 °F 25.7 °F 30.4 in NNW 6 mph 12 mph 87 % 0 in
01:37 29.1 °F 25.7 °F 30.4 in NE 5 mph 12 mph 87 % 0 in
01:42 28.9 °F 25.5 °F 30.4 in NE 9 mph 12 mph 87 % 0 in
01:47 28.9 °F 25.5 °F 30.4 in NE 4 mph 12 mph 87 % 0 in
01:52 28.8 °F 25.3 °F 30.4 in North 5 mph 12 mph 87 % 0 in
01:57 28.8 °F 25.3 °F 30.4 in NE 3 mph 12 mph 87 % 0 in
02:02 28.8 °F 25.3 °F 30.4 in NNE 8 mph 11 mph 87 % 0 in
02:12 28.6 °F 25.5 °F 30.4 in NNW 2 mph 11 mph 88 % 0 in
02:17 28.4 °F 25.3 °F 30.4 in North 2 mph 11 mph 88 % 0 in
02:22 28.2 °F 25.2 °F 30.4 in NNW 3 mph 10 mph 88 % 0 in
02:27 28.2 °F 25.3 °F 30.4 in North 6 mph 10 mph 89 % 0 in
02:32 28.2 °F 25.3 °F 30.4 in NNW 9 mph 9 mph 89 % 0 in
02:37 28.2 °F 25.3 °F 30.4 in NNW 2 mph 9 mph 89 % 0 in
02:42 28.2 °F 25.3 °F 30.4 in North 4 mph 11 mph 89 % 0 in
02:47 28 °F 25.5 °F 30.4 in NNW 1 mph 11 mph 90 % 0 in
02:52 28 °F 25.5 °F 30.4 in NNW 2 mph 11 mph 90 % 0 in
02:57 27.9 °F 25.3 °F 30.4 in NNE 2 mph 10 mph 90 % 0 in
03:02 27.9 °F 25.3 °F 30.4 in NNE 4 mph 7 mph 90 % 0 in
03:07 27.9 °F 25.3 °F 30.4 in NNE 2 mph 9 mph 90 % 0 in
03:12 27.9 °F 25.3 °F 30.4 in NE 7 mph 11 mph 90 % 0 in
03:17 28 °F 25.5 °F 30.4 in WNW 1 mph 11 mph 90 % 0 in
03:22 28 °F 25.5 °F 30.4 in NNW 2 mph 11 mph 90 % 0 in
03:27 28 °F 25.5 °F 30.4 in ENE 3 mph 11 mph 90 % 0 in
03:32 28.2 °F 25.7 °F 30.4 in NE 4 mph 11 mph 90 % 0 in
03:42 28.2 °F 25.3 °F 30.4 in NE 10 mph 13 mph 89 % 0 in
03:52 28.2 °F 25.2 °F 30.4 in NNE 11 mph 18 mph 88 % 0 in
03:57 28 °F 25.2 °F 30.4 in NNE 5 mph 18 mph 89 % 0 in
04:02 27.9 °F 25 °F 30.4 in NNW 7 mph 18 mph 89 % 0 in
04:12 27.7 °F 24.8 °F 30.4 in NNE 9 mph 14 mph 89 % 0 in
04:22 27.5 °F 24.4 °F 30.4 in NNE 8 mph 14 mph 88 % 0 in
04:32 27.3 °F 24.3 °F 30.4 in NNE 8 mph 18 mph 88 % 0 in
04:37 27.3 °F 23.9 °F 30.4 in NNE 7 mph 15 mph 87 % 0 in
04:42 27.1 °F 23.7 °F 30.4 in NNE 6 mph 15 mph 87 % 0 in
04:47 27.1 °F 23.7 °F 30.4 in NNE 3 mph 14 mph 87 % 0 in
04:57 26.8 °F 23.7 °F 30.4 in NNE 9 mph 11 mph 88 % 0 in
05:02 26.8 °F 23.7 °F 30.4 in NE 8 mph 11 mph 88 % 0 in
05:12 26.8 °F 23.4 °F 30.4 in North 5 mph 14 mph 87 % 0 in
05:22 26.8 °F 23.4 °F 30.4 in North 5 mph 14 mph 87 % 0 in
05:27 26.6 °F 23 °F 30.4 in North 1 mph 13 mph 86 % 0 in
05:32 26.4 °F 23 °F 30.4 in NNE 2 mph 13 mph 87 % 0 in
05:42 26.4 °F 22.8 °F 30.4 in NE 3 mph 12 mph 86 % 0 in
05:47 26.4 °F 22.8 °F 30.4 in NE 4 mph 12 mph 86 % 0 in
05:52 26.4 °F 22.8 °F 30.4 in NE 6 mph 12 mph 86 % 0 in
05:57 26.2 °F 22.6 °F 30.4 in NNE 8 mph 17 mph 86 % 0 in
06:02 26.2 °F 22.6 °F 30.4 in NE 11 mph 17 mph 86 % 0 in
06:07 26.2 °F 22.3 °F 30.4 in NNE 2 mph 17 mph 85 % 0 in
06:12 26.2 °F 22.3 °F 30.4 in North 2 mph 17 mph 85 % 0 in
06:17 26.1 °F 22.1 °F 30.4 in NNE 4 mph 14 mph 85 % 0 in
06:22 26.1 °F 22.1 °F 30.4 in NNW 1 mph 14 mph 85 % 0 in
06:27 25.9 °F 21.9 °F 30.4 in NE 4 mph 14 mph 85 % 0 in
06:32 25.9 °F 21.9 °F 30.4 in NNE 11 mph 14 mph 85 % 0 in
06:37 25.9 °F 21.9 °F 30.4 in NE 5 mph 14 mph 85 % 0 in
06:47 25.9 °F 21.9 °F 30.4 in NE 3 mph 14 mph 85 % 0 in
06:52 25.9 °F 21.9 °F 30.4 in NE 9 mph 14 mph 85 % 0 in
06:57 25.9 °F 21.9 °F 30.4 in NNE 6 mph 15 mph 85 % 0 in
07:02 25.7 °F 21.7 °F 30.4 in NE 9 mph 15 mph 85 % 0 in
07:12 25.5 °F 21.6 °F 30.4 in NE 10 mph 15 mph 85 % 0 in
07:17 25.5 °F 21.6 °F 30.4 in NE 9 mph 11 mph 85 % 0 in
07:22 25.5 °F 21.6 °F 30.4 in ENE 4 mph 13 mph 85 % 0 in
07:27 25.5 °F 21.6 °F 30.4 in NNW 2 mph 13 mph 85 % 0 in
07:32 25.3 °F 21.4 °F 30.4 in NNE 7 mph 13 mph 85 % 0 in
07:42 25.3 °F 21.4 °F 30.4 in NE 2 mph 13 mph 85 % 0 in
07:47 25.3 °F 21.4 °F 30.4 in NNW 1 mph 13 mph 85 % 0 in
07:52 25.3 °F 21.4 °F 30.4 in NE 6 mph 13 mph 85 % 0 in
07:57 25.2 °F 21.4 °F 30.4 in North 8 mph 15 mph 85 % 0 in
08:02 25.2 °F 21.4 °F 30.4 in NNE 4 mph 15 mph 85 % 0 in
08:12 25.2 °F 21.4 °F 30.4 in NW 3 mph 15 mph 85 % 0 in
08:17 25 °F 21.2 °F 30.4 in NNW 4 mph 15 mph 85 % 0 in
08:22 25 °F 21.4 °F 30.4 in NE 7 mph 15 mph 86 % 0 in
08:32 24.6 °F 21 °F 30.4 in NE 5 mph 13 mph 86 % 0 in
08:37 24.6 °F 21 °F 30.4 in ENE 5 mph 12 mph 86 % 0 in
08:42 24.6 °F 21.4 °F 30.4 in NNE 8 mph 12 mph 87 % 0 in
08:47 24.6 °F 21 °F 30.4 in NE 8 mph 12 mph 86 % 0 in
08:52 24.6 °F 21 °F 30.4 in NE 6 mph 12 mph 86 % 0 in
08:57 24.6 °F 21 °F 30.4 in NNW 2 mph 13 mph 86 % 0 in
09:02 24.6 °F 21.4 °F 30.4 in NE 2 mph 13 mph 87 % 0 in
09:12 24.8 °F 21.2 °F 30.4 in NNE 5 mph 11 mph 86 % 0 in
09:17 25 °F 21.7 °F 30.4 in NW 3 mph 12 mph 87 % 0 in
09:22 25.2 °F 21.6 °F 30.4 in NNW 4 mph 12 mph 86 % 0 in
09:32 25.3 °F 21.7 °F 30.4 in North 3 mph 12 mph 86 % 0 in
09:37 25.5 °F 21.9 °F 30.4 in NNE 5 mph 14 mph 86 % 0 in
09:42 25.7 °F 22.1 °F 30.4 in North 3 mph 14 mph 86 % 0 in
09:52 25.9 °F 22.3 °F 30.4 in NNE 6 mph 14 mph 86 % 0 in
09:57 25.9 °F 22.3 °F 30.4 in NNW 4 mph 11 mph 86 % 0 in
10:02 26.1 °F 22.5 °F 30.4 in North 7 mph 11 mph 86 % 0 in
10:12 26.2 °F 22.6 °F 30.4 in North 2 mph 11 mph 86 % 0 in
10:17 26.4 °F 22.8 °F 30.4 in North 5 mph 12 mph 86 % 0 in
10:22 26.6 °F 23 °F 30.4 in NE 3 mph 12 mph 86 % 0 in
10:32 26.8 °F 23.2 °F 30.4 in NNW 3 mph 14 mph 86 % 0 in
10:37 26.8 °F 22.8 °F 30.4 in West 3 mph 14 mph 85 % 0 in
10:42 27 °F 23 °F 30.4 in NNE 11 mph 16 mph 85 % 0 in
10:47 27 °F 23 °F 30.4 in North 5 mph 16 mph 85 % 0 in
10:57 27.1 °F 23.2 °F 30.4 in NW 7 mph 16 mph 85 % 0 in
11:02 27.3 °F 23.2 °F 30.5 in NNW 13 mph 14 mph 84 % 0 in
11:07 27.3 °F 23.4 °F 30.5 in NNW 7 mph 16 mph 85 % 0 in
11:12 27.5 °F 23.5 °F 30.5 in NNW 6 mph 16 mph 85 % 0 in
11:22 27.9 °F 23.7 °F 30.4 in NW 4 mph 15 mph 84 % 0 in
11:27 27.9 °F 23.4 °F 30.4 in North 11 mph 15 mph 83 % 0 in
11:32 28 °F 23.5 °F 30.4 in North 6 mph 15 mph 83 % 0 in
11:37 28.2 °F 23.7 °F 30.4 in North 12 mph 16 mph 83 % 0 in
11:42 28.2 °F 23.4 °F 30.4 in NNE 11 mph 20 mph 82 % 0 in
11:47 28.4 °F 23.4 °F 30.4 in NNE 9 mph 20 mph 81 % 0 in
11:52 28.6 °F 23.5 °F 30.4 in NNE 10 mph 20 mph 81 % 0 in
11:57 28.6 °F 23.5 °F 30.4 in NNW 11 mph 18 mph 81 % 0 in
12:02 28.8 °F 23.7 °F 30.4 in NNW 3 mph 18 mph 81 % 0 in
12:12 28.9 °F 23.9 °F 30.4 in NNW 9 mph 19 mph 81 % 0 in
12:17 29.1 °F 23.7 °F 30.4 in NNE 6 mph 19 mph 80 % 0 in
12:22 29.1 °F 23.7 °F 30.4 in NNE 8 mph 19 mph 80 % 0 in
12:27 29.5 °F 24.1 °F 30.4 in North 11 mph 19 mph 80 % 0 in
12:32 29.5 °F 24.1 °F 30.4 in NNE 6 mph 16 mph 80 % 0 in
12:37 29.7 °F 24.3 °F 30.4 in NNE 6 mph 17 mph 80 % 0 in
12:42 29.7 °F 23.7 °F 30.4 in North 13 mph 20 mph 78 % 0 in
12:47 29.8 °F 23.9 °F 30.4 in NE 14 mph 20 mph 78 % 0 in
12:52 30 °F 24.3 °F 30.4 in NNE 9 mph 20 mph 79 % 0 in
12:57 29.8 °F 22.8 °F 30.4 in NE 11 mph 24 mph 75 % 0 in
13:02 29.7 °F 23 °F 30.4 in NNE 13 mph 24 mph 76 % 0 in
13:12 29.1 °F 23.4 °F 30.4 in North 9 mph 22 mph 79 % 0 in
13:17 29.1 °F 23.7 °F 30.4 in NNE 12 mph 22 mph 80 % 0 in
13:22 29.1 °F 23.7 °F 30.4 in East 12 mph 19 mph 80 % 0 in
13:27 28.9 °F 23.2 °F 30.4 in NE 7 mph 19 mph 79 % 0 in
13:32 28.9 °F 23.9 °F 30.4 in NE 9 mph 19 mph 81 % 0 in
13:37 28.8 °F 23 °F 30.4 in NNE 5 mph 18 mph 79 % 0 in
13:42 28.6 °F 22.8 °F 30.4 in NNE 12 mph 18 mph 79 % 0 in
13:52 27.7 °F 22.3 °F 30.4 in NNE 13 mph 22 mph 80 % 0 in
13:57 27.7 °F 22.3 °F 30.4 in NNE 14 mph 22 mph 80 % 0 in
14:02 27.5 °F 22.5 °F 30.4 in NNE 10 mph 21 mph 81 % 0 in
14:12 27.5 °F 22.1 °F 30.4 in NE 12 mph 21 mph 80 % 0 in
14:17 27.9 °F 23 °F 30.4 in NE 10 mph 18 mph 82 % 0 in
14:22 27.9 °F 23 °F 30.4 in North 10 mph 18 mph 82 % 0 in
14:32 27.3 °F 22.3 °F 30.4 in NNE 7 mph 19 mph 81 % 0 in
14:37 27.3 °F 22.6 °F 30.4 in North 8 mph 19 mph 82 % 0 in
14:42 27.5 °F 22.5 °F 30.4 in North 14 mph 22 mph 81 % 0 in
14:47 27.5 °F 22.5 °F 30.4 in NE 5 mph 22 mph 81 % 0 in
14:52 27.1 °F 21.7 °F 30.4 in North 8 mph 24 mph 80 % 0 in
14:57 27 °F 21.6 °F 30.4 in North 12 mph 24 mph 80 % 0 in
15:02 27.1 °F 22.1 °F 30.4 in NNW 11 mph 24 mph 81 % 0 in
15:12 26.4 °F 21 °F 30.4 in NNE 16 mph 26 mph 80 % 0 in
15:17 26.4 °F 21.4 °F 30.4 in NE 13 mph 26 mph 81 % 0 in
15:22 26.4 °F 21.7 °F 30.4 in NNE 12 mph 23 mph 82 % 0 in
15:27 26.4 °F 21.7 °F 30.4 in NNE 9 mph 21 mph 82 % 0 in
15:32 26.4 °F 21.7 °F 30.4 in NNW 8 mph 21 mph 82 % 0 in
15:37 26.2 °F 20.8 °F 30.4 in NE 7 mph 23 mph 80 % 0 in
15:42 26.2 °F 21.2 °F 30.4 in NNE 3 mph 23 mph 81 % 0 in
15:52 26.2 °F 20.8 °F 30.4 in NE 11 mph 20 mph 80 % 0 in
15:57 26.2 °F 21.2 °F 30.4 in North 13 mph 20 mph 81 % 0 in
16:02 26.6 °F 21.9 °F 30.4 in NNE 12 mph 20 mph 82 % 0 in
16:07 26.8 °F 21.7 °F 30.4 in NNE 9 mph 18 mph 81 % 0 in
16:12 26.8 °F 21.7 °F 30.4 in NNE 13 mph 18 mph 81 % 0 in
16:17 26.8 °F 21.4 °F 30.4 in NNE 3 mph 19 mph 80 % 0 in
16:22 26.8 °F 21.4 °F 30.4 in North 2 mph 19 mph 80 % 0 in
16:27 26.8 °F 21.4 °F 30.4 in ENE 11 mph 19 mph 80 % 0 in
16:32 26.8 °F 21.4 °F 30.4 in NNE 7 mph 19 mph 80 % 0 in
16:37 26.8 °F 21.4 °F 30.4 in North 2 mph 19 mph 80 % 0 in
16:42 26.8 °F 21.2 °F 30.4 in NNE 9 mph 21 mph 79 % 0 in
16:52 26.8 °F 21.4 °F 30.4 in NNW 5 mph 21 mph 80 % 0 in
16:57 26.8 °F 21.4 °F 30.4 in NNE 15 mph 20 mph 80 % 0 in
17:02 26.8 °F 21.4 °F 30.4 in NE 15 mph 20 mph 80 % 0 in
17:12 26.6 °F 21.2 °F 30.4 in East 8 mph 21 mph 80 % 0 in
17:17 26.4 °F 21 °F 30.4 in NNE 7 mph 21 mph 80 % 0 in
17:22 26.2 °F 20.8 °F 30.4 in NE 14 mph 19 mph 80 % 0 in
17:32 26.2 °F 21.2 °F 30.4 in North 8 mph 21 mph 81 % 0 in
17:37 26.1 °F 21 °F 30.4 in NNE 2 mph 23 mph 81 % 0 in
17:42 25.9 °F 21.2 °F 30.4 in NNW 5 mph 23 mph 82 % 0 in
17:52 25.7 °F 21.2 °F 30.4 in NNW 6 mph 15 mph 83 % 0 in
17:57 25.7 °F 21.2 °F 30.4 in North 11 mph 14 mph 83 % 0 in
18:07 25.9 °F 21.4 °F 30.4 in NE 5 mph 17 mph 83 % 0 in
18:12 25.9 °F 21.4 °F 30.4 in NE 4 mph 17 mph 83 % 0 in
18:17 25.9 °F 21.4 °F 30.4 in North 9 mph 17 mph 83 % 0 in
18:22 25.9 °F 21.4 °F 30.4 in NNE 5 mph 17 mph 83 % 0 in
18:27 25.9 °F 21.4 °F 30.4 in NNE 7 mph 17 mph 83 % 0 in
18:32 25.9 °F 21.4 °F 30.4 in Calm   17 mph 83 % 0 in
18:37 25.9 °F 21.4 °F 30.4 in ENE 7 mph 17 mph 83 % 0 in
18:42 25.9 °F 21.4 °F 30.4 in NNE 8 mph 16 mph 83 % 0 in
18:47 26.1 °F 21.6 °F 30.4 in North 7 mph 17 mph 83 % 0 in
18:52 26.1 °F 21.6 °F 30.4 in NNE 14 mph 17 mph 83 % 0 in
18:57 26.1 °F 21.6 °F 30.4 in NE 7 mph 17 mph 83 % 0 in
19:02 26.1 °F 21.6 °F 30.4 in NNE 4 mph 17 mph 83 % 0 in
19:12 26.1 °F 21.6 °F 30.4 in NE 4 mph 15 mph 83 % 0 in
19:17 26.1 °F 21.6 °F 30.5 in East 3 mph 17 mph 83 % 0 in
19:22 26.2 °F 21.7 °F 30.5 in NW 7 mph 20 mph 83 % 0 in
19:32 26.2 °F 21.7 °F 30.5 in NE 4 mph 17 mph 83 % 0 in
19:37 26.2 °F 21.7 °F 30.5 in North 8 mph 19 mph 83 % 0 in
19:42 26.2 °F 21.7 °F 30.5 in North 8 mph 23 mph 83 % 0 in
19:47 26.2 °F 21.7 °F 30.5 in NE 6 mph 23 mph 83 % 0 in
19:52 26.2 °F 21.7 °F 30.5 in WNW 6 mph 23 mph 83 % 0 in
19:57 26.2 °F 21.7 °F 30.5 in NE 2 mph 22 mph 83 % 0 in
20:02 26.1 °F 21.6 °F 30.5 in NE 8 mph 22 mph 83 % 0 in
20:07 26.1 °F 21.6 °F 30.4 in NNW 13 mph 22 mph 83 % 0 in
20:22 25.9 °F 21.4 °F 30.4 in NE 7 mph 20 mph 83 % 0 in
20:32 25.7 °F 21.2 °F 30.4 in NNW 11 mph 20 mph 83 % 0 in
20:37 25.7 °F 21.2 °F 30.4 in NE 13 mph 20 mph 83 % 0 in
20:42 25.5 °F 21 °F 30.4 in NNE 8 mph 18 mph 83 % 0 in
20:47 25.3 °F 21.2 °F 30.4 in NNE 7 mph 17 mph 84 % 0 in
20:52 25.3 °F 20.8 °F 30.4 in ESE 5 mph 16 mph 83 % 0 in
20:57 25.3 °F 20.8 °F 30.4 in ENE 6 mph 16 mph 83 % 0 in
21:02 25.2 °F 21 °F 30.4 in NNW 13 mph 16 mph 84 % 0 in
21:07 25 °F 20.8 °F 30.4 in NNW 8 mph 17 mph 84 % 0 in
21:12 25 °F 20.8 °F 30.4 in NE 13 mph 17 mph 84 % 0 in
21:17 25 °F 20.8 °F 30.4 in NNW 3 mph 17 mph 84 % 0 in
21:22 24.8 °F 20.7 °F 30.4 in North 9 mph 14 mph 84 % 0 in
21:32 24.8 °F 20.7 °F 30.4 in North 7 mph 16 mph 84 % 0 in
21:37 24.6 °F 20.8 °F 30.4 in NE 5 mph 16 mph 85 % 0 in
21:42 24.6 °F 20.8 °F 30.4 in NNW 15 mph 18 mph 85 % 0 in
21:47 24.6 °F 20.5 °F 30.4 in NE 12 mph 19 mph 84 % 0 in
21:52 24.8 °F 20.7 °F 30.4 in NNE 7 mph 19 mph 84 % 0 in
21:57 24.6 °F 20.5 °F 30.4 in NE 11 mph 19 mph 84 % 0 in
22:02 24.6 °F 20.5 °F 30.4 in NNE 7 mph 19 mph 84 % 0 in
22:12 24.6 °F 20.5 °F 30.4 in North 9 mph 18 mph 84 % 0 in
22:17 24.4 °F 20.3 °F 30.4 in NNE 11 mph 18 mph 84 % 0 in
22:22 24.4 °F 20.3 °F 30.4 in North 4 mph 17 mph 84 % 0 in
22:32 24.6 °F 20.5 °F 30.4 in NE 12 mph 20 mph 84 % 0 in
22:37 24.6 °F 20.1 °F 30.4 in North 15 mph 20 mph 83 % 0 in
22:42 24.6 °F 20.1 °F 30.4 in NE 5 mph 20 mph 83 % 0 in
22:47 24.6 °F 20.1 °F 30.4 in NE 2 mph 20 mph 83 % 0 in
22:52 24.6 °F 20.1 °F 30.4 in NNW 11 mph 19 mph 83 % 0 in
22:57 24.6 °F 19.9 °F 30.4 in NNE 11 mph 18 mph 82 % 0 in
23:02 25 °F 19.9 °F 30.4 in NNW 4 mph 18 mph 81 % 0 in
23:07 25.2 °F 19.9 °F 30.4 in NNE 11 mph 19 mph 80 % 0 in
23:12 25.3 °F 20.1 °F 30.4 in North 7 mph 22 mph 80 % 0 in
23:17 25.3 °F 20.1 °F 30.4 in NE 10 mph 22 mph 80 % 0 in
23:22 25.3 °F 19.8 °F 30.4 in NNE 8 mph 22 mph 79 % 0 in
23:27 25.3 °F 19.8 °F 30.4 in NE 6 mph 20 mph 79 % 0 in
23:32 25.3 °F 19.8 °F 30.4 in North 14 mph 20 mph 79 % 0 in
23:37 25.3 °F 19.8 °F 30.4 in NE 7 mph 20 mph 79 % 0 in
23:42 25.3 °F 19.8 °F 30.4 in NNE 11 mph 20 mph 79 % 0 in
23:47 25.3 °F 19.8 °F 30.4 in NE 11 mph 23 mph 79 % 0 in
23:52 25.3 °F 19.8 °F 30.4 in NNE 13 mph 23 mph 79 % 0 in
23:57 25.3 °F 19.8 °F 30.4 in NNE 15 mph 20 mph 79 % 0 in
Meteo18
Compliments of Weather Underground - 4 mb

Script developed by  Jim McMurry - jmcmurry@mwt.net Adapted for the template by  Wim van der Kuil - Leuven-Template.eu

You find our weather info also at:

European Weather Network

Weather Underground

Equipment we use:

Weather-station
Davis Vue

Weather-program
Meteohub

Weather-server
Raspberry PI 2 B+

Provider
1 and 1

Davis Vue

Meteohub

Raspberry PI 2 B+

1 and 1